Regional Weather Roundup
Issued by NWS

Home | Current Version | Previous Version | Text Only | Print | Product List | Glossary Off
Versions: 1 2 3 4 5 6 7 8 9 10 11 12 13 14 15 16 17 18 19 20 21 22 23 24 25 26 27 28 29 30 31 32 33 34 35 36 37 38 39 40 41 42 43 44 45 46 47 48 49 50

000
ASUS43 KFSD 262202
RWRSD

WEATHER ROUNDUP FOR SOUTH DAKOTA
NATIONAL WEATHER SERVICE SIOUX FALLS SD
400 PM CST THU FEB 26 2015

NOTE: "FAIR" INDICATES FEW OR NO CLOUDS BELOW 12,000 FEET WITH NO
SIGNIFICANT WEATHER AND/OR OBSTRUCTIONS TO VISIBILITY.


SDZ001>005-009-010-012>017-262300-
NORTHWEST AND NORTH CENTRAL SOUTH DAKOTA

CITY           SKY/WX    TMP DP  RH WIND       PRES   REMARKS
BUFFALO          N/A     11  -4  51 VRB3      30.34F
FAITH            N/A     13  -6  42 N6        30.43F WCI   4
MOBRIDGE       SUNNY     10  -6  48 N12       30.49F WCI  -5
$$

SDZ012>016-024>037-041>051-057-063-072>074-262300-
SOUTHWEST AND SOUTH CENTRAL SOUTH DAKOTA

CITY           SKY/WX    TMP DP  RH WIND       PRES   REMARKS
RAPID CTY ARPT SUNNY      9  -2  61 N14       30.39S WCI  -7
PIERRE         MOSUNNY   12  -3  51 N12       30.51S WCI  -2
CUSTER         LGT SNOW   4  -3  73 E10       30.13S VSB 1   WCI -11
ELLSWORTH AFB  MOSUNNY   10  -3  57 N10       30.38F WCI  -4
PHILIP         SUNNY     16  -6  37 N13       30.47S WCI   2
PINE RIDGE     MOSUNNY   13  -2  51 NE6       30.36F WCI   4
WINNER         FAIR      13  -5  44 N13       30.48S WCI  -2
$$

SDZ004>011-016>023-039-040-262300-
NORTHEAST SOUTH DAKOTA

CITY           SKY/WX    TMP DP  RH WIND       PRES   REMARKS
ABERDEEN       SUNNY      6  -6  57 N12       30.55S WCI  -9
WATERTOWN      CLOUDY     2  -7  66 NW15G21   30.46R WCI -17
SISSETON         N/A      4  -6  63 N18       30.52S WCI -16
$$

SDZ017-020-022-023-036>040-048>070-262300-
SOUTHEAST SOUTH DAKOTA

CITY           SKY/WX    TMP DP  RH WIND       PRES   REMARKS
SIOUX FALLS    PTSUNNY    5  -4  66 N15       30.49R WCI -13
HURON          MOSUNNY    5  -6  60 N14       30.54F WCI -12
MITCHELL       SUNNY      8  -4  58 N15       30.55S WCI  -9
YANKTON        MOSUNNY   10  -6  48 NW18G24   30.53S WCI  -8
$$

ABBREVIATIONS USED IN REMARKS
   TC - TEMPERATURE IN CELSIUS
  WCI - WIND CHILL INDEX
   HX - HEAT INDEX
  VSB - VISIBILITY



USA.gov is the U.S. government's official web portal to all federal, state and local government web resources and services.